| time (UTC) | temp F | wind direction | speed MPH | gust MPH | rain 1hr in | rain 24hr in | rain mn in | humidity % | barometer mb |
| 20260831181539 | 75 | 269 | 9.0 | 26.0 | 0.00 | 0.09 | 0.00 | 42 | 936.3 |
| 20260831180037 | 74 | 271 | 11.0 | 27.0 | 0.00 | 0.09 | 0.00 | 43 | 936.2 |
| 20260831174536 | 73 | 271 | 11.0 | 33.0 | 0.00 | 0.09 | 0.00 | 45 | 936.2 |
| 20260831173033 | 73 | 271 | 15.0 | 29.0 | 0.00 | 0.09 | 0.00 | 45 | 936.1 |
| 20260831171531 | 73 | 316 | 11.0 | 28.0 | 0.00 | 0.09 | 0.00 | 48 | 936.0 |
| 20260831170038 | 71 | 263 | 10.0 | 23.0 | 0.00 | 0.09 | 0.00 | 50 | 936.0 |
| 20260831164527 | 71 | 250 | 7.0 | 24.0 | 0.00 | 0.10 | 0.00 | 50 | 935.9 |
| 20260831163025 | 70 | 258 | 8.0 | 24.0 | 0.00 | 0.10 | 0.00 | 51 | 935.8 |
| 20260831161521 | 69 | 270 | 7.0 | 20.0 | 0.00 | 0.10 | 0.00 | 51 | 935.7 |
| 20260831160018 | 68 | 257 | 6.0 | 25.0 | 0.00 | 0.10 | 0.00 | 52 | 935.5 |
| 20260831154528 | 66 | 275 | 7.0 | 26.0 | 0.00 | 0.10 | 0.00 | 52 | 935.3 |
| 20260831153013 | 65 | 258 | 6.0 | 15.0 | 0.00 | 0.10 | 0.00 | 53 | 935.3 |
| 20260831151512 | 65 | 264 | 5.0 | 17.0 | 0.00 | 0.10 | 0.00 | 52 | 935.3 |
| 20260831150015 | 64 | 292 | 6.0 | 19.0 | 0.00 | 0.10 | 0.00 | 53 | 935.3 |
| 20260831144510 | 65 | 287 | 6.0 | 15.0 | 0.00 | 0.10 | 0.00 | 53 | 935.2 |
| 20260831143006 | 64 | 254 | 5.0 | 12.0 | 0.00 | 0.10 | 0.00 | 54 | 935.2 |
| 20260831141501 | 62 | 223 | 4.0 | 12.0 | 0.00 | 0.10 | 0.00 | 57 | 935.2 |
| 20260831140059 | 60 | 171 | 3.0 | 12.0 | 0.00 | 0.10 | 0.00 | 59 | 934.9 |
| 20260831134554 | 59 | 223 | 2.0 | 10.0 | 0.00 | 0.10 | 0.00 | 63 | 935.1 |
| 20260831133052 | 59 | 163 | 2.0 | 8.0 | 0.00 | 0.10 | 0.00 | 64 | 935.3 |
| 20260831131551 | 58 | 234 | 1.0 | 8.0 | 0.00 | 0.10 | 0.00 | 64 | 935.3 |
| 20260831130052 | 58 | 259 | 2.0 | 12.0 | 0.00 | 0.10 | 0.00 | 65 | 935.5 |
| 20260831124551 | 57 | 246 | 2.0 | 8.0 | 0.00 | 0.10 | 0.00 | 66 | 935.5 |
| 20260831123044 | 57 | 211 | 0.0 | 4.0 | 0.00 | 0.10 | 0.00 | 65 | 935.6 |
| 20260831121544 | 56 | 209 | 1.0 | 8.0 | 0.00 | 0.10 | 0.00 | 67 | 935.6 |
| 20260831120036 | 56 | 222 | 1.0 | 5.0 | 0.00 | 0.10 | 0.00 | 67 | 935.5 |
| 20260831114534 | 55 | 267 | 1.0 | 4.0 | 0.00 | 0.10 | 0.00 | 70 | 935.3 |
| 20260831113033 | 54 | 221 | 1.0 | 5.0 | 0.00 | 0.10 | 0.00 | 72 | 935.2 |
| 20260831111535 | 54 | 204 | 0.0 | 4.0 | 0.00 | 0.10 | 0.00 | 73 | 935.2 |
| 20260831110032 | 54 | 238 | 0.0 | 4.0 | 0.00 | 0.10 | 0.00 | 73 | 935.4 |
| 20260831104530 | 54 | 200 | 1.0 | 5.0 | 0.00 | 0.10 | 0.00 | 73 | 935.4 |
| 20260831103027 | 52 | 193 | 1.0 | 7.0 | 0.00 | 0.10 | 0.00 | 78 | 935.2 |
| 20260831101526 | 52 | 167 | 0.0 | 4.0 | 0.00 | 0.10 | 0.00 | 80 | 935.2 |
| 20260831100027 | 52 | 196 | 0.0 | 2.0 | 0.00 | 0.10 | 0.00 | 79 | 935.3 |
| 20260831094530 | 52 | 197 | 0.0 | 1.0 | 0.00 | 0.10 | 0.00 | 80 | 935.4 |
| 20260831093028 | 52 | 198 | 0.0 | 1.0 | 0.00 | 0.10 | 0.00 | 79 | 935.6 |
| 20260831091519 | 52 | 205 | 0.0 | 1.0 | 0.00 | 0.10 | 0.00 | 79 | 935.9 |
| 20260831090017 | 53 | 206 | 0.0 | 1.0 | 0.00 | 0.10 | 0.00 | 78 | 935.9 |
| 20260831084530 | 53 | 202 | 0.0 | 2.0 | 0.00 | 0.12 | 0.00 | 79 | 936.1 |
| 20260831083035 | 54 | 200 | 0.0 | 2.0 | 0.00 | 0.12 | 0.00 | 77 | 936.2 |
| 20260831081515 | 54 | 202 | 0.0 | 3.0 | 0.00 | 0.12 | 0.00 | 78 | 936.1 |
| 20260831080025 | 54 | 207 | 0.0 | 3.0 | 0.00 | 0.12 | 0.00 | 79 | 936.1 |
| 20260831074516 | 55 | 207 | 0.0 | 3.0 | 0.00 | 0.12 | 0.00 | 77 | 936.1 |
| 20260831073018 | 55 | 195 | 0.0 | 3.0 | 0.00 | 0.12 | 0.00 | 77 | 935.9 |
| 20260831071509 | 54 | 210 | 0.0 | 2.0 | 0.00 | 0.12 | 0.00 | 78 | 936.0 |
| 20260831070009 | 54 | 196 | 0.0 | 3.0 | 0.00 | 0.12 | 0.00 | 79 | 936.0 |
| 20260831064508 | 54 | 203 | 0.0 | 2.0 | 0.00 | 0.12 | 0.00 | 80 | 936.0 |
| 20260831063005 | 54 | 191 | 0.0 | 2.0 | 0.00 | 0.12 | 0.00 | 81 | 936.0 |
| 20260831061501 | 53 | 192 | 0.0 | 2.0 | 0.00 | 0.12 | 0.00 | 84 | 936.3 |
| 20260831060058 | 52 | 199 | 0.0 | 2.0 | 0.00 | 0.12 | 0.00 | 89 | 936.3 |
| 20260831054600 | 52 | 246 | 0.0 | 1.0 | 0.00 | 0.12 | 0.12 | 91 | 936.4 |
| 20260831053057 | 52 | 246 | 0.0 | 1.0 | 0.00 | 0.12 | 0.12 | 91 | 936.5 |
| 20260831051556 | 52 | 246 | 0.0 | 0.0 | 0.00 | 0.12 | 0.12 | 91 | 936.5 |
| 20260831050056 | 52 | 246 | 0.0 | 1.0 | 0.00 | 0.12 | 0.12 | 91 | 936.5 |
| 20260831044557 | 52 | 246 | 0.0 | 1.0 | 0.00 | 0.13 | 0.12 | 90 | 936.6 |
| 20260831043052 | 53 | 246 | 0.0 | 1.0 | 0.00 | 0.13 | 0.12 | 89 | 936.6 |
| 20260831041559 | 53 | 246 | 0.0 | 1.0 | 0.00 | 0.13 | 0.12 | 88 | 936.6 |
| 20260831040048 | 54 | 246 | 0.0 | 0.0 | 0.00 | 0.13 | 0.12 | 87 | 936.7 |
| 20260831034545 | 55 | 246 | 0.0 | 0.0 | 0.00 | 0.13 | 0.12 | 85 | 937.0 |
| 20260831033042 | 56 | 246 | 0.0 | 2.0 | 0.00 | 0.13 | 0.12 | 85 | 937.1 |
| 20260831031540 | 56 | 251 | 0.0 | 2.0 | 0.00 | 0.13 | 0.12 | 84 | 937.1 |
| 20260831030037 | 57 | 273 | 0.0 | 1.0 | 0.00 | 0.13 | 0.12 | 81 | 936.9 |
| 20260831024534 | 59 | 273 | 0.0 | 1.0 | 0.00 | 0.13 | 0.12 | 78 | 936.7 |
| 20260831023028 | 60 | 273 | 0.0 | 0.0 | 0.00 | 0.13 | 0.12 | 76 | 936.6 |
| 20260831021533 | 61 | 273 | 0.0 | 2.0 | 0.00 | 0.13 | 0.12 | 74 | 936.5 |
| 20260831020023 | 62 | 274 | 0.0 | 1.0 | 0.00 | 0.13 | 0.12 | 72 | 936.4 |
| 20260831014525 | 63 | 277 | 0.0 | 3.0 | 0.00 | 0.13 | 0.12 | 70 | 936.4 |
| 20260831013026 | 64 | 272 | 0.0 | 3.0 | 0.00 | 0.13 | 0.12 | 69 | 936.4 |
| 20260831011520 | 65 | 276 | 1.0 | 8.0 | 0.00 | 0.13 | 0.12 | 69 | 936.3 |
| 20260831010022 | 66 | 284 | 3.0 | 10.0 | 0.00 | 0.13 | 0.12 | 70 | 936.4 |
| 20260831004519 | 66 | 275 | 0.0 | 4.0 | 0.00 | 0.13 | 0.12 | 78 | 936.5 |
| 20260831003017 | 65 | 272 | 0.0 | 3.0 | 0.00 | 0.13 | 0.12 | 78 | 936.4 |
| 20260831001516 | 64 | 275 | 0.0 | 2.0 | 0.00 | 0.13 | 0.12 | 79 | 936.5 |
| 20260831000033 | 64 | 262 | 0.0 | 2.0 | 0.00 | 0.13 | 0.12 | 79 | 936.7 |
| 20260830234516 | 64 | 256 | 0.0 | 2.0 | 0.00 | 0.13 | 0.12 | 79 | 936.3 |
| 20260830233020 | 64 | 281 | 0.0 | 1.0 | 0.00 | 0.13 | 0.12 | 78 | 936.2 |
| 20260830231514 | 65 | 264 | 1.0 | 5.0 | 0.00 | 0.13 | 0.12 | 77 | 936.0 |
| 20260830230015 | 65 | 242 | 1.0 | 5.0 | 0.00 | 0.13 | 0.12 | 77 | 936.2 |
| 20260830224513 | 66 | 282 | 2.0 | 11.0 | 0.00 | 0.13 | 0.12 | 74 | 936.1 |
| 20260830223013 | 66 | 278 | 2.0 | 11.0 | 0.01 | 0.13 | 0.12 | 75 | 935.9 |
| 20260830221511 | 65 | 250 | 3.0 | 12.0 | 0.09 | 0.13 | 0.12 | 79 | 936.0 |
| 20260830220013 | 63 | 276 | 4.0 | 11.0 | 0.09 | 0.13 | 0.12 | 86 | 936.2 |
| 20260830214510 | 62 | 266 | 2.0 | 8.0 | 0.09 | 0.13 | 0.12 | 90 | 936.1 |
| 20260830213009 | 64 | 267 | 2.0 | 12.0 | 0.07 | 0.11 | 0.10 | 81 | 936.7 |
| 20260830211513 | 70 | 290 | 4.0 | 13.0 | 0.00 | 0.04 | 0.03 | 70 | 935.8 |
| 20260830210006 | 71 | 286 | 6.0 | 14.0 | 0.00 | 0.04 | 0.03 | 69 | 935.0 |
| 20260830204506 | 71 | 288 | 6.0 | 17.0 | 0.00 | 0.04 | 0.03 | 72 | 934.8 |
| 20260830203005 | 70 | 264 | 4.0 | 10.0 | 0.00 | 0.04 | 0.03 | 71 | 935.1 |
| 20260830201503 | 70 | 278 | 2.0 | 8.0 | 0.00 | 0.04 | 0.03 | 70 | 935.6 |
| 20260830200003 | 70 | 309 | 3.0 | 8.0 | 0.00 | 0.04 | 0.03 | 75 | 935.1 |
| 20260830194503 | 71 | 275 | 1.0 | 8.0 | 0.00 | 0.04 | 0.03 | 75 | 935.1 |
| 20260830193003 | 70 | 283 | 1.0 | 9.0 | 0.00 | 0.04 | 0.03 | 79 | 935.2 |
| 20260830191502 | 70 | 285 | 3.0 | 7.0 | 0.00 | 0.04 | 0.03 | 79 | 934.9 |
| 20260830190001 | 71 | 295 | 3.0 | 6.0 | 0.00 | 0.04 | 0.03 | 78 | 934.9 |
| 20260830184601 | 72 | 274 | 2.0 | 8.0 | 0.00 | 0.04 | 0.03 | 78 | 934.9 |
| 20260830183101 | 72 | 274 | 4.0 | 9.0 | 0.00 | 0.04 | 0.03 | 78 | 934.7 |